Terug naar catalogus

STARLINK-4425

ActiefCommunicatieSSO
NORAD 53208·PAYLOAD·🇺🇸 United States

Gelanceerd Jul 22, 2022 vanaf Vandenberg Space Force Base

Loading…

Volgende Passages (komende 24 uur)

TLE

VersSource: CelesTrak SupGP

Epoch: Sep 15, 2026, 02:48 UTC

1 53208C 22084V   26258.11715278  .00685520  00000+0  17249-1 0  2586
2 53208  97.2814 312.9698 0001297  87.1291  91.5829 15.39635743    17

Volg STARLINK-4425 in realtime met AllMySat

Download on the App Store